Tracking 18987 objects as of 17-Feb-2018
HD Live streaming from Space Station
objects crossing your sky now

NOAA 16 DEB

Track NOAA 16 DEB now!
10-day predictions


NORAD ID: 42427
Int'l Code: 2000-055TX
Perigee: 738.5 km
Apogee: 853.5 km
Inclination: 98.9 °
Period: 100.6 minutes
Semi major axis: 7167 km
RCS: Unknown
Launch date: September 21, 2000
Source: United States (US)
Launch site: AIR FORCE WESTERN TEST RANGE (AFWTR)

Note: This is SATELLITE DEBRIS
aabbcc
Your satellite tracking list
Your tracking list is empty




NASA's NSSDC Master Catalog

Two Line Element Set (TLE):
1 42427U 00055TX  18047.51264770  .00000951  00000-0  36729-3 0  9996
2 42427  98.8509 144.0237 0080261 249.8545 109.3989 14.30852343 78923
Source of the keplerian elements: AFSPC